Weather History for KPSC - July, 2013

Change the Weather History Date:

Sunday, July 28, 2013

  Actual Average Record
Temperature  
Mean Temperature 74 °F 75 °F  
Max Temperature 89 °F 93 °F 110 °F (1998)
Min Temperature 59 °F 58 °F 50 °F (2011)
Degree Days  
Heating Degree Days 0 0  
Month to date heating degree days 0 1  
Since 1 June heating degree days 19 33  
Since 1 July heating degree days 0 1  
Cooling Degree Days 9 10  
Month to date cooling degree days 346 237  
Year to date cooling degree days 516 379  
Since 1 June cooling degree days 470 346  
Growing Degree Days 24 (Base 50)    
Moisture  
Dew Point 45 °F    
Average Humidity 44    
Maximum Humidity 69    
Minimum Humidity 18    
Precipitation  
Precipitation 0.00 in 0.01 in 0.01 in (2001)
Month to date precipitation T 0.27  
Year to date precipitation 2.94 5.20  
Snow  
Snow 0.00 in - - ()
Snow Depth 0.00 in    
Sea Level Pressure  
Sea Level Pressure 29.81 in    
Wind  
Wind Speed 4 mph (SW)    
Max Wind Speed 13 mph    
Max Gust Speed 20 mph    
Visibility 10 miles    
Events      
T = Trace of Precipitation, MM = Missing Value Source: NWS Daily Summary

Daily Weather History Graph

Daily Weather History Graph

Search for Another Location

Airport or City:

Trip Planner

Search our weather history database for the weather conditions in past years. The results will help you decide how hot, cold, wet, or windy it might be!

Date:

Astronomy

Jul. 28, 2013 Rise Set
Actual Time 5:33 AM PDT 8:31 PM PDT
Civil Twilight 4:58 AM PDT 9:06 PM PDT
Nautical Twilight 4:13 AM PDT 9:51 PM PDT
Astronomical Twilight 3:18 AM PDT 10:45 PM PDT
Moon 11:27 PM PDT (7/28) 12:48 PM PDT (7/28)
Length of Visible Light 16h 08m
Length of Day
14h 57m
Waning Gibbous, 60% of the Moon is Illuminated
Jul 28
Waning Gibbous
Jul 29
Last Quarter
Aug 6
New
Aug 14
First Quarter
Aug 20
Full

Hourly Weather History & Observations

Time (PDT) Temp. Dew Point Humidity Pressure Visibility Wind Dir Wind Speed Gust Speed Precip Events Conditions
12:53 AM 69.1 °F 41.0 °F 36% 29.82 in 10.0 mi Calm Calm - N/A   Overcast
1:53 AM 64.9 °F 43.0 °F 45% 29.83 in 10.0 mi Calm Calm - N/A   Overcast
2:53 AM 60.1 °F 50.0 °F 69% 29.84 in 10.0 mi Calm Calm - N/A   Clear
3:53 AM 64.0 °F 46.9 °F 54% 29.84 in 10.0 mi SSW 3.5 mph - N/A   Clear
4:53 AM 60.1 °F 48.9 °F 67% 29.85 in 10.0 mi Calm Calm - N/A   Clear
5:53 AM 63.0 °F 48.9 °F 60% 29.86 in 10.0 mi South 4.6 mph - N/A   Clear
6:53 AM 64.9 °F 48.9 °F 56% 29.87 in 10.0 mi SSW 9.2 mph - N/A   Clear
7:53 AM 69.1 °F 48.9 °F 49% 29.86 in 10.0 mi SSW 8.1 mph - N/A   Clear
8:53 AM 71.1 °F 48.0 °F 44% 29.87 in 10.0 mi Variable 3.5 mph - N/A   Clear
9:53 AM 73.9 °F 48.0 °F 40% 29.86 in 10.0 mi Variable 3.5 mph - N/A   Clear
10:53 AM 79.0 °F 44.1 °F 29% 29.86 in 10.0 mi WSW 5.8 mph - N/A   Clear
11:53 AM 80.1 °F 42.1 °F 26% 29.84 in 10.0 mi SSW 6.9 mph - N/A   Clear
12:53 PM 82.9 °F 44.1 °F 25% 29.83 in 10.0 mi West 10.4 mph - N/A   Clear
1:53 PM 84.9 °F 43.0 °F 23% 29.81 in 10.0 mi West 4.6 mph - N/A   Clear
2:53 PM 87.1 °F 42.1 °F 21% 29.80 in 10.0 mi SW 8.1 mph - N/A   Clear
3:53 PM 87.1 °F 41.0 °F 20% 29.78 in 10.0 mi Variable 4.6 mph - N/A   Clear
4:53 PM 89.1 °F 41.0 °F 19% 29.77 in 7.0 mi West 3.5 mph - N/A   Clear
5:53 PM 88.0 °F 39.0 °F 18% 29.75 in 10.0 mi Variable 4.6 mph - N/A   Clear
6:53 PM 88.0 °F 41.0 °F 19% 29.75 in 10.0 mi SSE 6.9 mph - N/A   Clear
7:53 PM 86.0 °F 41.0 °F 20% 29.75 in 10.0 mi South 8.1 mph - N/A   Clear
8:53 PM 81.0 °F 46.0 °F 29% 29.75 in 10.0 mi SSW 11.5 mph - N/A   Clear
9:53 PM 73.9 °F 48.0 °F 40% 29.76 in 10.0 mi Calm Calm - N/A   Clear
10:53 PM 75.0 °F 48.0 °F 38% 29.78 in 10.0 mi South 5.8 mph - N/A   Clear
11:53 PM 71.1 °F 48.0 °F 44% 29.80 in 10.0 mi SSW 9.2 mph - N/A   Clear